<?xml version="1.0" encoding="UTF-8" standalone="no" ?>
<gpx xmlns="http://www.topografix.com/GPX/1/1" xmlns:xsi="http://www.w3.org/2001/XMLSchema-instance" xsi:schemaLocation="http://www.topografix.com/GPX/1/1 http://www.topografix.com/GPX/1/1/gpx.xsd" version="1.1" creator="VisuGPX - https://www.visugpx.com">
  <metadata>
    <name>La Colle - Brayal</name>
    <desc><![CDATA[Iti n°2 de la CC Moyen Verdon]]></desc>
  </metadata>
  <trk>
    <name><![CDATA[La Colle - Brayal - Espace VTT - FFC du Verdon et des vallées de l'Asse - 7285 - UtagawaVTT.com]]></name>
    <trkseg>
      <trkpt lat="43.84775" lon="6.51076">
        <ele>733</ele>
        <time>2011-07-27T13:37:01Z</time>
      </trkpt>
      <trkpt lat="43.84786" lon="6.50997">
        <ele>733</ele>
        <time>2011-07-27T13:37:01Z</time>
      </trkpt>
      <trkpt lat="43.84658" lon="6.50991">
        <ele>730</ele>
        <time>2011-07-27T13:37:01Z</time>
      </trkpt>
      <trkpt lat="43.84659" lon="6.5096">
        <ele>730</ele>
        <time>2011-07-27T13:37:01Z</time>
      </trkpt>
      <trkpt lat="43.84624" lon="6.50948">
        <ele>729</ele>
        <time>2011-07-27T13:37:01Z</time>
      </trkpt>
      <trkpt lat="43.84616" lon="6.51055">
        <ele>728</ele>
      </trkpt>
      <trkpt lat="43.84583" lon="6.51049">
        <ele>727</ele>
      </trkpt>
      <trkpt lat="43.84534" lon="6.51046">
        <ele>725</ele>
      </trkpt>
      <trkpt lat="43.84507" lon="6.51058">
        <ele>724</ele>
        <time>2011-07-27T13:37:01Z</time>
      </trkpt>
      <trkpt lat="43.84499" lon="6.51113">
        <ele>722</ele>
        <time>2011-07-27T13:37:01Z</time>
      </trkpt>
      <trkpt lat="43.84473" lon="6.51109">
        <ele>721</ele>
        <time>2011-07-27T13:37:01Z</time>
      </trkpt>
      <trkpt lat="43.84435" lon="6.50979">
        <ele>721</ele>
        <time>2011-07-27T13:37:01Z</time>
      </trkpt>
      <trkpt lat="43.84343" lon="6.50782">
        <ele>718</ele>
        <time>2011-07-27T13:37:01Z</time>
      </trkpt>
      <trkpt lat="43.8422" lon="6.50487">
        <ele>717</ele>
        <time>2011-07-27T13:37:01Z</time>
      </trkpt>
      <trkpt lat="43.84164" lon="6.50356">
        <ele>718</ele>
        <time>2011-07-27T13:37:01Z</time>
      </trkpt>
      <trkpt lat="43.84113" lon="6.50221">
        <ele>719</ele>
        <time>2011-07-27T13:37:01Z</time>
      </trkpt>
      <trkpt lat="43.84036" lon="6.50048">
        <ele>718</ele>
        <time>2011-07-27T13:37:01Z</time>
      </trkpt>
      <trkpt lat="43.83814" lon="6.49786">
        <ele>718</ele>
        <time>2011-07-27T13:37:01Z</time>
      </trkpt>
      <trkpt lat="43.838" lon="6.4976">
        <ele>719</ele>
        <time>2011-07-27T13:37:01Z</time>
      </trkpt>
      <trkpt lat="43.83833" lon="6.49762">
        <ele>719</ele>
        <time>2011-07-27T13:37:01Z</time>
      </trkpt>
      <trkpt lat="43.83894" lon="6.49776">
        <ele>719</ele>
        <time>2011-07-27T13:37:01Z</time>
      </trkpt>
      <trkpt lat="43.8403" lon="6.49687">
        <ele>719</ele>
        <time>2011-07-27T13:37:01Z</time>
      </trkpt>
      <trkpt lat="43.84175" lon="6.49607">
        <ele>718</ele>
        <time>2011-07-27T13:37:01Z</time>
      </trkpt>
      <trkpt lat="43.84123" lon="6.49541">
        <ele>722</ele>
        <time>2011-07-27T13:37:01Z</time>
      </trkpt>
      <trkpt lat="43.83965" lon="6.49321">
        <ele>734</ele>
        <time>2011-07-27T13:37:01Z</time>
      </trkpt>
      <trkpt lat="43.83939" lon="6.4927">
        <ele>740</ele>
        <time>2011-07-27T13:37:01Z</time>
      </trkpt>
      <trkpt lat="43.83804" lon="6.49176">
        <ele>754</ele>
        <time>2011-07-27T13:37:01Z</time>
      </trkpt>
      <trkpt lat="43.83777" lon="6.4912">
        <ele>758</ele>
        <time>2011-07-27T13:37:01Z</time>
      </trkpt>
      <trkpt lat="43.83792" lon="6.49042">
        <ele>761</ele>
        <time>2011-07-27T13:37:01Z</time>
      </trkpt>
      <trkpt lat="43.838" lon="6.49011">
        <ele>761</ele>
        <time>2011-07-27T13:37:01Z</time>
      </trkpt>
      <trkpt lat="43.83815" lon="6.48981">
        <ele>758</ele>
        <time>2011-07-27T13:37:01Z</time>
      </trkpt>
      <trkpt lat="43.83848" lon="6.48964">
        <ele>761</ele>
        <time>2011-07-27T13:37:01Z</time>
      </trkpt>
      <trkpt lat="43.83868" lon="6.48917">
        <ele>758</ele>
        <time>2011-07-27T13:37:01Z</time>
      </trkpt>
      <trkpt lat="43.83938" lon="6.48905">
        <ele>770</ele>
        <time>2011-07-27T13:37:01Z</time>
      </trkpt>
      <trkpt lat="43.83969" lon="6.48868">
        <ele>775</ele>
        <time>2011-07-27T13:37:01Z</time>
      </trkpt>
      <trkpt lat="43.84053" lon="6.48787">
        <ele>783</ele>
        <time>2011-07-27T13:37:01Z</time>
      </trkpt>
      <trkpt lat="43.84024" lon="6.48778">
        <ele>783</ele>
        <time>2011-07-27T13:37:01Z</time>
      </trkpt>
      <trkpt lat="43.84028" lon="6.48762">
        <ele>785</ele>
        <time>2011-07-27T13:37:01Z</time>
      </trkpt>
      <trkpt lat="43.84068" lon="6.48731">
        <ele>795</ele>
        <time>2011-07-27T13:37:01Z</time>
      </trkpt>
      <trkpt lat="43.84083" lon="6.48676">
        <ele>800</ele>
        <time>2011-07-27T13:37:01Z</time>
      </trkpt>
      <trkpt lat="43.84123" lon="6.48617">
        <ele>810</ele>
        <time>2011-07-27T13:37:01Z</time>
      </trkpt>
      <trkpt lat="43.84139" lon="6.48647">
        <ele>814</ele>
        <time>2011-07-27T13:37:01Z</time>
      </trkpt>
      <trkpt lat="43.84156" lon="6.48694">
        <ele>814</ele>
        <time>2011-07-27T13:37:01Z</time>
      </trkpt>
      <trkpt lat="43.84221" lon="6.48699">
        <ele>820</ele>
        <time>2011-07-27T13:37:01Z</time>
      </trkpt>
      <trkpt lat="43.84302" lon="6.4868">
        <ele>823</ele>
        <time>2011-07-27T13:37:01Z</time>
      </trkpt>
      <trkpt lat="43.84377" lon="6.48664">
        <ele>826</ele>
        <time>2011-07-27T13:37:01Z</time>
      </trkpt>
      <trkpt lat="43.84386" lon="6.4868">
        <ele>826</ele>
        <time>2011-07-27T13:37:01Z</time>
      </trkpt>
      <trkpt lat="43.84374" lon="6.48738">
        <ele>827</ele>
        <time>2011-07-27T13:37:01Z</time>
      </trkpt>
      <trkpt lat="43.84391" lon="6.48826">
        <ele>835</ele>
        <time>2011-07-27T13:37:01Z</time>
      </trkpt>
      <trkpt lat="43.84369" lon="6.48869">
        <ele>833</ele>
        <time>2011-07-27T13:37:01Z</time>
      </trkpt>
      <trkpt lat="43.84384" lon="6.48913">
        <ele>838</ele>
        <time>2011-07-27T13:37:01Z</time>
      </trkpt>
      <trkpt lat="43.84374" lon="6.48979">
        <ele>844</ele>
        <time>2011-07-27T13:37:01Z</time>
      </trkpt>
      <trkpt lat="43.84373" lon="6.49021">
        <ele>851</ele>
        <time>2011-07-27T13:37:01Z</time>
      </trkpt>
      <trkpt lat="43.84435" lon="6.49092">
        <ele>860</ele>
        <time>2011-07-27T13:37:01Z</time>
      </trkpt>
      <trkpt lat="43.84434" lon="6.49135">
        <ele>859</ele>
        <time>2011-07-27T13:37:01Z</time>
      </trkpt>
      <trkpt lat="43.8445" lon="6.49164">
        <ele>852</ele>
        <time>2011-07-27T13:37:01Z</time>
      </trkpt>
      <trkpt lat="43.84495" lon="6.49167">
        <ele>849</ele>
        <time>2011-07-27T13:37:01Z</time>
      </trkpt>
      <trkpt lat="43.84536" lon="6.49164">
        <ele>856</ele>
        <time>2011-07-27T13:37:01Z</time>
      </trkpt>
      <trkpt lat="43.84556" lon="6.49241">
        <ele>853</ele>
        <time>2011-07-27T13:37:01Z</time>
      </trkpt>
      <trkpt lat="43.84553" lon="6.49279">
        <ele>848</ele>
        <time>2011-07-27T13:37:01Z</time>
      </trkpt>
      <trkpt lat="43.84576" lon="6.49303">
        <ele>851</ele>
      </trkpt>
      <trkpt lat="43.84575" lon="6.49391">
        <ele>837</ele>
        <time>2011-07-27T13:37:01Z</time>
      </trkpt>
      <trkpt lat="43.8456" lon="6.49426">
        <ele>831</ele>
        <time>2011-07-27T13:37:01Z</time>
      </trkpt>
      <trkpt lat="43.84555" lon="6.49492">
        <ele>828</ele>
        <time>2011-07-27T13:37:01Z</time>
      </trkpt>
      <trkpt lat="43.84569" lon="6.49536">
        <ele>825</ele>
        <time>2011-07-27T13:37:01Z</time>
      </trkpt>
      <trkpt lat="43.84582" lon="6.49553">
        <ele>823</ele>
        <time>2011-07-27T13:37:01Z</time>
      </trkpt>
      <trkpt lat="43.84617" lon="6.49587">
        <ele>815</ele>
        <time>2011-07-27T13:37:01Z</time>
      </trkpt>
      <trkpt lat="43.84627" lon="6.49615">
        <ele>811</ele>
        <time>2011-07-27T13:37:01Z</time>
      </trkpt>
      <trkpt lat="43.84679" lon="6.49718">
        <ele>788</ele>
        <time>2011-07-27T13:37:01Z</time>
      </trkpt>
      <trkpt lat="43.84708" lon="6.49768">
        <ele>774</ele>
        <time>2011-07-27T13:37:01Z</time>
      </trkpt>
      <trkpt lat="43.84721" lon="6.49805">
        <ele>766</ele>
        <time>2011-07-27T13:37:01Z</time>
      </trkpt>
      <trkpt lat="43.84739" lon="6.49778">
        <ele>768</ele>
        <time>2011-07-27T13:37:01Z</time>
      </trkpt>
      <trkpt lat="43.84751" lon="6.49845">
        <ele>767</ele>
        <time>2011-07-27T13:37:01Z</time>
      </trkpt>
      <trkpt lat="43.84782" lon="6.49873">
        <ele>769</ele>
        <time>2011-07-27T13:37:01Z</time>
      </trkpt>
      <trkpt lat="43.84775" lon="6.49912">
        <ele>758</ele>
        <time>2011-07-27T13:37:01Z</time>
      </trkpt>
      <trkpt lat="43.84782" lon="6.49944">
        <ele>754</ele>
        <time>2011-07-27T13:37:01Z</time>
      </trkpt>
      <trkpt lat="43.8478" lon="6.49972">
        <ele>749</ele>
        <time>2011-07-27T13:37:01Z</time>
      </trkpt>
      <trkpt lat="43.84747" lon="6.49995">
        <ele>742</ele>
        <time>2011-07-27T13:37:01Z</time>
      </trkpt>
      <trkpt lat="43.84745" lon="6.50158">
        <ele>736</ele>
        <time>2011-07-27T13:37:01Z</time>
      </trkpt>
      <trkpt lat="43.84773" lon="6.50356">
        <ele>732</ele>
        <time>2011-07-27T13:37:01Z</time>
      </trkpt>
      <trkpt lat="43.84796" lon="6.50377">
        <ele>734</ele>
        <time>2011-07-27T13:37:01Z</time>
      </trkpt>
      <trkpt lat="43.84851" lon="6.50344">
        <ele>739</ele>
        <time>2011-07-27T13:37:01Z</time>
      </trkpt>
      <trkpt lat="43.84902" lon="6.50307">
        <ele>741</ele>
        <time>2011-07-27T13:37:01Z</time>
      </trkpt>
      <trkpt lat="43.8495" lon="6.50289">
        <ele>742</ele>
        <time>2011-07-27T13:37:01Z</time>
      </trkpt>
      <trkpt lat="43.8506" lon="6.50232">
        <ele>739</ele>
        <time>2011-07-27T13:37:01Z</time>
      </trkpt>
      <trkpt lat="43.85128" lon="6.50236">
        <ele>745</ele>
        <time>2011-07-27T13:37:01Z</time>
      </trkpt>
      <trkpt lat="43.85189" lon="6.5024">
        <ele>749</ele>
        <time>2011-07-27T13:37:01Z</time>
      </trkpt>
      <trkpt lat="43.85232" lon="6.50231">
        <ele>746</ele>
        <time>2011-07-27T13:37:01Z</time>
      </trkpt>
      <trkpt lat="43.85248" lon="6.50249">
        <ele>749</ele>
      </trkpt>
      <trkpt lat="43.85281" lon="6.50255">
        <ele>745</ele>
      </trkpt>
      <trkpt lat="43.85305" lon="6.5027">
        <ele>745</ele>
        <time>2011-07-27T13:37:01Z</time>
      </trkpt>
      <trkpt lat="43.85321" lon="6.50338">
        <ele>746</ele>
        <time>2011-07-27T13:37:01Z</time>
      </trkpt>
      <trkpt lat="43.8531" lon="6.50364">
        <ele>747</ele>
        <time>2011-07-27T13:37:01Z</time>
      </trkpt>
      <trkpt lat="43.8527" lon="6.50391">
        <ele>751</ele>
        <time>2011-07-27T13:37:01Z</time>
      </trkpt>
      <trkpt lat="43.85247" lon="6.50422">
        <ele>754</ele>
        <time>2011-07-27T13:37:01Z</time>
      </trkpt>
      <trkpt lat="43.85243" lon="6.50487">
        <ele>753</ele>
        <time>2011-07-27T13:37:01Z</time>
      </trkpt>
      <trkpt lat="43.85263" lon="6.506">
        <ele>748</ele>
        <time>2011-07-27T13:37:01Z</time>
      </trkpt>
      <trkpt lat="43.85183" lon="6.50745">
        <ele>747</ele>
        <time>2011-07-27T13:37:01Z</time>
      </trkpt>
      <trkpt lat="43.84882" lon="6.5092">
        <ele>738</ele>
        <time>2011-07-27T13:37:01Z</time>
      </trkpt>
      <trkpt lat="43.84797" lon="6.51084">
        <ele>734</ele>
        <time>2011-07-27T13:37:01Z</time>
      </trkpt>
      <trkpt lat="43.84778" lon="6.51074">
        <ele>733</ele>
        <time>2011-07-27T13:37:01Z</time>
      </trkpt>
    </trkseg>
  </trk>
</gpx>